CYGFM08

Last updated on Fri Sep 11 2026 00:02:39 GMT+0000 (Coordinated Universal Time)

1 41888U 16078E 26253.56394699 .00030684 00000+0 30612-3 0 9995 2 41888 34.9431 31.0224 0006119 283.7631 76.2414 15.64569230542336
UTC large
Height (km)
Speed (km/s)
/
Latitude / Longitude
Inclination (degrees)
Orbital Period (minutes)
Azimuth
Elevation
Range (km)
Doppler Factor

Next 0 passes for location: London (51.5072 / 0.1276)

No passes found over London.
CYGFM08